Total_Precipitation_Accumulation
0.10 0.20 0.42 0.52 0.57 0.55 0.50 0.45 0.43 0.42 0.42 0.44 0.46 0.46 0.41 0.39 0.36 0.35 0.37 0.40 0.47 0.53 0.59 0.63 0.61 0.56 0.47 0.40 0.27 0.17 0.15 0.17 0.13 0.10 0.09 0.11 0.16 0.17 0.14 0.13 0.15 0.21 0.27
0.10 0.18 0.37 0.50 0.62 0.64 0.58 0.51 0.44 0.40 0.42 0.50 0.53 0.50 0.46 0.43 0.42 0.39 0.46 0.48 0.54 0.56 0.58 0.62 0.62 0.51 0.40 0.29 0.20 0.15 0.14 0.08 0.04 0.03 0.02 0.05 0.10 0.13 0.12 0.11 0.15 0.22 0.28
0.14 0.21 0.37 0.51 0.63 0.65 0.58 0.52 0.43 0.40 0.42 0.53 0.60 0.55 0.52 0.48 0.47 0.45 0.48 0.53 0.59 0.59 0.51 0.49 0.47 0.37 0.28 0.18 0.14 0.12 0.11 0.06 0.04 0.03 0.03 0.07 0.11 0.17 0.17 0.15 0.20 0.28 0.29
0.20 0.25 0.38 0.56 0.72 0.73 0.65 0.55 0.48 0.48 0.50 0.57 0.68 0.69 0.63 0.58 0.56 0.55 0.52 0.51 0.56 0.53 0.45 0.39 0.33 0.24 0.18 0.15 0.11 0.10 0.08 0.05 0.04 0.03 0.06 0.09 0.12 0.23 0.24 0.22 0.25 0.31 0.27
0.27 0.33 0.45 0.63 0.81 0.81 0.71 0.61 0.54 0.56 0.60 0.64 0.71 0.79 0.79 0.69 0.67 0.65 0.59 0.52 0.53 0.47 0.38 0.31 0.25 0.17 0.12 0.11 0.10 0.10 0.09 0.06 0.04 0.04 0.07 0.12 0.16 0.28 0.27 0.25 0.29 0.32 0.27
0.35 0.45 0.56 0.70 0.89 0.96 0.81 0.70 0.62 0.62 0.68 0.74 0.80 0.87 0.87 0.84 0.82 0.77 0.61 0.51 0.46 0.40 0.32 0.26 0.22 0.15 0.10 0.09 0.09 0.08 0.10 0.09 0.05 0.05 0.06 0.10 0.16 0.30 0.32 0.27 0.30 0.33 0.33
0.40 0.57 0.73 0.87 1.01 1.15 1.03 0.88 0.79 0.76 0.77 0.82 0.87 0.88 0.91 0.92 0.93 0.85 0.63 0.48 0.42 0.39 0.33 0.24 0.21 0.16 0.12 0.11 0.10 0.08 0.09 0.08 0.07 0.08 0.06 0.09 0.16 0.33 0.37 0.34 0.36 0.39 0.36
0.51 0.66 0.91 1.17 1.23 1.35 1.31 1.09 0.95 0.88 0.89 0.93 0.93 0.92 0.94 0.97 0.98 0.94 0.68 0.50 0.42 0.40 0.37 0.29 0.23 0.19 0.15 0.13 0.12 0.10 0.10 0.07 0.06 0.07 0.07 0.08 0.14 0.25 0.29 0.29 0.32 0.35 0.33
0.78 0.81 0.95 1.20 1.37 1.47 1.50 1.25 1.12 0.99 0.92 0.96 1.02 1.02 0.93 0.87 0.90 0.88 0.69 0.54 0.47 0.49 0.45 0.39 0.32 0.26 0.19 0.16 0.14 0.11 0.08 0.06 0.05 0.07 0.06 0.07 0.11 0.21 0.25 0.25 0.29 0.32 0.33
1.17 1.13 1.10 1.21 1.34 1.52 1.59 1.30 1.13 1.03 0.96 0.96 0.96 0.88 0.75 0.71 0.75 0.76 0.63 0.55 0.49 0.52 0.50 0.43 0.36 0.30 0.25 0.20 0.16 0.11 0.08 0.06 0.06 0.06 0.07 0.08 0.14 0.22 0.26 0.28 0.29 0.32 0.35
1.52 1.52 1.44 1.37 1.33 1.41 1.56 1.38 1.23 1.11 0.99 0.94 0.92 0.82 0.73 0.70 0.71 0.63 0.51 0.47 0.48 0.52 0.55 0.48 0.40 0.34 0.25 0.19 0.16 0.13 0.11 0.09 0.09 0.10 0.10 0.11 0.16 0.24 0.30 0.35 0.36 0.37 0.38
1.61 1.58 1.61 1.58 1.48 1.48 1.52 1.47 1.37 1.19 1.07 0.94 0.85 0.80 0.78 0.74 0.70 0.62 0.54 0.49 0.52 0.53 0.60 0.58 0.47 0.38 0.24 0.18 0.18 0.16 0.14 0.11 0.12 0.13 0.13 0.15 0.22 0.32 0.38 0.39 0.34 0.35 0.39
1.89 1.74 1.68 1.71 1.75 1.66 1.61 1.51 1.39 1.16 1.07 1.05 0.95 0.84 0.81 0.88 0.84 0.80 0.67 0.57 0.59 0.57 0.59 0.57 0.52 0.39 0.26 0.21 0.20 0.16 0.16 0.17 0.15 0.15 0.15 0.18 0.25 0.37 0.41 0.39 0.33 0.32 0.36
2.26 2.09 2.00 2.02 1.98 1.85 1.76 1.64 1.50 1.23 1.05 1.02 1.01 0.98 0.92 0.89 0.80 0.77 0.71 0.58 0.55 0.55 0.58 0.59 0.50 0.43 0.37 0.30 0.27 0.24 0.21 0.20 0.19 0.20 0.20 0.20 0.21 0.31 0.41 0.45 0.40 0.40 0.40
2.41 2.42 2.32 2.30 2.27 2.09 1.99 1.84 1.56 1.38 1.15 1.01 0.99 1.02 0.95 0.87 0.80 0.75 0.71 0.68 0.59 0.57 0.56 0.64 0.65 0.57 0.50 0.42 0.36 0.30 0.27 0.25 0.24 0.24 0.25 0.26 0.23 0.27 0.38 0.49 0.55 0.56 0.60
2.40 2.56 2.62 2.58 2.50 2.33 2.12 1.94 1.68 1.52 1.33 1.20 1.12 1.05 0.98 0.93 0.90 0.86 0.76 0.70 0.64 0.59 0.59 0.68 0.74 0.67 0.61 0.52 0.43 0.37 0.34 0.31 0.26 0.24 0.25 0.26 0.24 0.26 0.34 0.48 0.62 0.73 0.80
2.36 2.59 2.75 2.84 2.95 2.69 2.44 2.18 1.91 1.71 1.54 1.40 1.25 1.12 1.00 0.94 0.98 0.98 0.91 0.77 0.67 0.70 0.70 0.72 0.79 0.83 0.76 0.63 0.55 0.48 0.42 0.37 0.31 0.27 0.28 0.26 0.24 0.22 0.27 0.43 0.60 0.70 0.80
2.36 2.48 2.63 2.65 2.90 3.00 2.84 2.54 2.16 1.91 1.70 1.56 1.44 1.29 1.17 1.03 1.04 1.07 1.02 0.97 0.87 0.85 0.84 0.81 0.78 0.73 0.69 0.62 0.57 0.53 0.50 0.46 0.40 0.37 0.37 0.31 0.25 0.21 0.23 0.31 0.43 0.53 0.65
2.37 2.44 2.61 2.61 2.70 2.89 3.03 2.86 2.56 2.28 2.01 1.82 1.70 1.52 1.41 1.30 1.23 1.22 1.14 1.11 1.14 1.07 0.98 0.93 0.87 0.79 0.73 0.68 0.63 0.63 0.62 0.56 0.50 0.46 0.41 0.35 0.32 0.29 0.27 0.27 0.30 0.37 0.46
2.37 2.55 2.68 2.81 2.85 3.01 3.30 3.30 2.99 2.72 2.48 2.28 2.05 1.91 1.77 1.62 1.50 1.41 1.35 1.29 1.31 1.25 1.14 1.06 0.97 0.91 0.82 0.81 0.80 0.72 0.67 0.61 0.57 0.51 0.46 0.42 0.39 0.39 0.40 0.40 0.40 0.39 0.43
2.05 2.33 2.40 2.64 2.84 3.01 3.10 3.05 2.87 2.66 2.52 2.43 2.38 2.29 2.11 1.92 1.80 1.63 1.50 1.47 1.46 1.39 1.27 1.21 1.17 1.06 0.99 1.01 0.97 0.80 0.68 0.60 0.56 0.51 0.51 0.51 0.47 0.44 0.45 0.50 0.53 0.52 0.43
1.66 1.85 2.00 2.19 2.43 2.64 2.78 2.76 2.79 2.83 2.67 2.46 2.40 2.36 2.30 2.19 2.04 1.85 1.67 1.60 1.57 1.54 1.40 1.32 1.35 1.30 1.19 1.18 1.17 1.10 0.92 0.75 0.58 0.52 0.52 0.51 0.50 0.52 0.48 0.47 0.47 0.49 0.51
1.34 1.53 1.68 1.84 2.00 2.12 2.49 2.75 2.77 2.85 2.77 2.48 2.23 2.08 2.17 2.25 2.24 2.09 1.91 1.85 1.77 1.74 1.66 1.55 1.50 1.46 1.43 1.37 1.38 1.48 1.27 0.96 0.71 0.60 0.59 0.56 0.54 0.57 0.59 0.55 0.52 0.50 0.50
1.06 1.26 1.47 1.65 1.80 1.84 2.10 2.39 2.42 2.31 2.26 2.16 2.09 2.12 2.16 2.20 2.25 2.25 2.14 2.01 1.93 1.88 1.81 1.87 1.90 1.79 1.69 1.53 1.43 1.35 1.32 1.15 1.07 0.86 0.68 0.66 0.64 0.60 0.64 0.64 0.60 0.56 0.53
0.88 0.97 1.18 1.47 1.62 1.68 1.75 1.95 2.17 2.22 2.17 2.19 2.19 2.18 2.12 2.04 2.08 2.17 2.18 2.07 1.89 1.77 1.70 1.76 1.85 1.91 1.80 1.65 1.54 1.45 1.38 1.23 1.14 1.13 0.92 0.75 0.73 0.67 0.66 0.70 0.72 0.72 0.71
0.75 0.76 0.91 1.11 1.41 1.57 1.63 1.72 1.86 1.94 1.92 1.96 2.05 2.10 2.12 2.02 1.92 1.92 1.97 1.95 1.91 1.79 1.67 1.69 1.81 1.89 1.90 1.85 1.71 1.56 1.47 1.38 1.20 1.21 1.15 0.96 0.91 0.83 0.79 0.81 0.84 0.87 0.86